Terug naar catalogus

DELTA 1 DEB

ActiefPO
NORAD 26829·DEBRIS·🇺🇸 United States

Gelanceerd Jun 12, 1975 vanaf Vandenberg Space Force Base

Loading…

Volgende Passages (komende 24 uur)

TLE

VersSource: Space-Track

Epoch: Sep 13, 2026, 23:50 UTC

1 26829U 75052KH  26256.99321074  .00000104  00000-0  34404-3 0  9995
2 26829  99.5738  83.5026 0256687  39.2526 112.4380 13.10374982527961

Volg DELTA 1 DEB in realtime met AllMySat

Download on the App Store